Theta_e
316 320 320 319 318 317 317 318 319 321 318 318 322 321 322 321 328 331 333 336 330 335 338 340 341 343 346 348 348 348 348 348 347 345 345 345 344 344 338 336 335 336 336 335
319 320 318 316 316 317 317 320 322 321 319 319 322 321 322 322 328 335 340 344 344 342 345 344 344 343 343 344 345 345 346 345 344 345 344 344 343 341 342 337 338 340 341 341
319 318 317 320 321 322 320 322 322 322 321 321 320 321 321 321 329 333 337 339 340 345 345 340 340 342 344 344 344 342 344 344 343 343 345 345 343 343 342 343 341 343 343 343
318 317 319 321 320 321 322 317 319 320 321 321 320 320 321 325 327 329 333 336 338 340 339 336 336 336 337 340 344 347 343 341 342 341 345 346 346 347 348 348 350 349 345 344
318 319 320 321 318 319 317 317 318 318 319 320 319 319 320 326 325 329 332 332 333 337 336 332 331 330 330 331 334 337 341 343 346 347 346 347 348 349 350 350 350 350 347 347
318 317 318 318 319 317 314 316 315 318 319 318 324 322 321 331 331 330 330 329 327 333 332 329 328 328 327 327 328 328 328 328 334 340 341 342 342 343 344 343 343 343 341 340
319 318 317 316 316 315 316 317 313 314 319 318 322 320 324 330 328 327 328 327 323 323 325 325 326 323 322 323 324 324 324 322 322 324 326 325 326 326 330 335 335 334 334 336
319 320 317 314 314 315 319 319 311 313 316 315 319 314 322 327 326 326 326 323 321 320 321 321 320 319 319 319 320 320 321 321 319 318 317 317 318 320 321 320 321 325 328 330
319 318 316 316 320 319 319 321 321 324 324 324 320 323 328 328 328 326 326 324 320 320 319 319 317 317 317 316 316 316 314 313 314 315 314 314 314 315 316 317 319 320 320 322
317 318 315 314 317 320 320 321 322 326 324 324 320 324 321 330 330 327 325 324 321 322 320 318 316 315 316 317 317 314 313 313 311 311 311 311 311 312 313 314 315 316 319 320
316 317 314 314 320 319 320 322 325 325 327 328 324 322 326 327 329 328 325 323 322 321 320 320 319 316 314 314 315 316 316 315 312 311 311 311 311 310 310 312 312 313 315 318
313 317 317 315 316 320 320 320 322 319 322 324 324 320 319 325 328 327 325 322 321 321 319 318 319 318 318 316 313 312 312 311 312 311 311 310 309 310 311 312 311 312 313 315
316 316 317 317 318 316 319 320 321 322 323 324 323 320 324 324 327 326 325 323 321 320 319 319 320 319 318 317 314 312 312 311 310 310 309 309 309 309 310 311 311 312 312 313
315 318 318 318 315 316 317 317 320 320 321 319 320 318 317 317 319 322 324 322 321 320 321 322 320 318 318 315 311 311 310 310 310 309 309 307 307 308 310 310 310 310 311 314
315 317 316 315 314 314 315 315 316 320 318 318 315 315 315 316 317 318 320 323 322 322 322 322 321 319 316 312 311 309 309 310 310 309 308 309 309 308 308 308 309 308 311 312
315 318 316 316 315 315 316 315 317 316 316 316 316 315 315 316 315 320 319 322 325 322 322 321 321 318 316 311 310 310 310 310 309 309 308 309 310 310 310 310 311 311 311 312
316 317 316 315 313 314 315 314 314 314 314 314 316 316 316 317 317 322 323 323 324 323 321 321 320 318 313 311 310 310 310 310 309 308 308 308 309 310 310 310 310 311 311 312
314 315 315 315 314 315 312 312 312 315 316 317 317 317 316 317 318 319 321 324 321 318 313 314 313 311 311 310 310 310 309 309 308 308 308 308 309 309 309 310 311 311 311 311
312 314 315 318 316 314 313 316 316 315 315 316 317 316 315 316 317 316 315 317 317 315 313 312 312 312 312 311 309 309 309 309 308 308 308 308 308 308 309 309 310 311 311 311
310 313 314 313 318 319 314 315 314 314 316 314 316 316 316 315 319 316 313 313 313 312 313 314 313 310 310 310 308 308 309 308 308 307 307 307 308 309 309 309 310 310 311 311
314 313 316 316 318 317 314 312 316 316 316 314 316 316 315 316 316 314 313 313 312 311 311 310 310 310 309 308 308 309 309 309 308 307 307 307 307 308 309 310 310 310 310 311
316 318 317 316 317 319 313 316 316 317 317 315 314 315 315 314 313 312 311 311 310 310 309 308 308 308 308 307 307 307 308 308 307 307 308 307 307 308 308 310 310 310 310 310
317 316 317 316 317 313 314 316 316 316 317 315 314 314 314 313 311 310 310 309 308 307 307 306 306 306 306 306 306 306 306 306 307 307 308 309 308 309 309 309 309 309 308 309
312 311 317 316 314 313 313 312 313 314 315 315 313 313 312 313 311 311 310 310 306 306 306 306 306 306 306 305 305 306 306 306 307 308 308 308 309 307 308 308 307 307 307 308
310 309 310 311 311 311 309 311 311 312 313 314 312 311 311 312 310 308 307 307 305 305 303 303 303 302 301 301 302 302 303 304 306 307 307 307 306 304 304 304 305 305 305 305
308 309 311 311 309 309 309 309 309 311 313 313 311 309 307 308 306 306 304 303 302 301 301 301 301 301 301 300 300 300 301 303 305 304 304 304 302 301 302 303 303 303 302 301
Wind_Speed
4 7 7 5 2 2 2 1 3 6 1 3 8 8 11 6 9 12 14 15 12 8 6 8 6 5 7 10 13 17 19 19 19 18 17 15 17 16 20 20 18 17 14 16
3 8 1 1 3 2 2 1 4 8 3 5 10 10 8 2 8 11 14 15 15 11 8 11 7 5 1 5 9 11 15 17 19 16 16 11 12 14 15 18 20 17 13 14
5 3 2 5 6 4 5 4 6 7 10 7 9 14 4 3 6 11 15 15 14 12 11 11 11 10 7 5 1 9 12 14 17 16 12 10 9 9 12 14 17 16 19 21
4 5 6 7 5 2 2 7 6 10 10 8 6 6 4 5 1 14 16 16 14 12 11 12 13 16 14 10 7 2 8 12 11 13 12 14 14 12 11 11 8 8 16 20
3 3 6 6 4 2 3 7 8 10 11 8 6 5 1 6 8 18 16 15 16 11 12 13 15 19 21 21 22 22 18 10 5 7 9 12 10 8 7 7 6 7 4 2
4 2 4 4 1 3 10 6 6 1 3 5 4 5 1 5 9 15 15 15 16 14 11 14 18 23 25 25 29 31 34 31 29 25 20 17 15 12 12 13 11 11 10 10
3 3 1 3 1 2 11 6 3 2 2 2 3 7 4 5 7 9 10 12 16 14 11 12 15 21 23 25 25 28 31 32 34 32 25 26 23 22 19 15 13 13 10 10
3 4 3 5 3 4 3 3 2 4 3 5 10 6 1 2 4 5 5 8 13 14 11 9 18 19 19 20 22 22 24 25 26 29 28 27 25 24 20 18 16 11 9 9
2 3 0 6 3 3 2 1 2 3 1 4 2 2 4 0 4 6 7 8 13 12 10 12 16 19 17 19 21 20 23 25 25 23 25 23 20 19 17 15 14 11 13 11
2 3 1 2 1 8 1 3 2 1 3 4 3 5 6 3 5 4 1 5 9 10 9 9 15 15 13 12 13 19 22 20 24 25 23 21 19 17 15 14 15 15 12 10
2 1 2 2 2 2 3 3 3 1 2 2 4 4 2 4 6 6 4 5 8 8 6 7 10 10 17 13 10 13 15 18 20 21 22 20 19 16 13 13 12 13 14 11
2 1 2 1 3 1 1 2 2 3 4 3 4 7 4 5 5 6 8 9 8 6 2 2 6 9 13 13 15 14 13 12 12 12 13 12 16 17 16 14 12 12 12 13
5 1 3 3 4 4 4 4 3 3 0 8 4 5 1 4 4 8 11 12 12 11 9 7 9 2 9 6 10 11 12 7 10 11 12 10 13 6 13 14 13 12 12 13
5 5 9 8 6 0 6 7 9 9 6 10 14 18 19 18 16 10 14 16 17 12 9 8 4 4 4 2 5 3 2 6 5 8 9 12 10 9 5 6 10 12 12 10
3 8 7 9 7 6 13 15 13 15 16 14 17 19 21 20 19 17 14 18 16 13 10 9 7 3 5 5 3 3 2 3 6 9 10 8 9 10 10 12 13 12 11 11
1 5 2 8 9 13 16 17 17 18 19 19 19 22 18 12 10 12 11 14 13 8 10 8 8 12 11 7 6 3 1 2 7 10 13 10 10 10 10 9 9 10 11 10
3 4 2 6 1 6 11 17 14 12 11 10 11 9 10 16 12 9 6 8 11 9 8 7 4 7 7 5 3 4 4 3 6 9 12 13 12 12 12 10 11 10 11 12
4 4 3 4 3 5 2 2 6 8 6 10 10 11 8 7 4 5 4 4 8 7 8 5 9 8 6 3 4 5 6 6 7 9 12 12 12 13 14 13 12 11 11 11
10 7 3 3 5 8 5 3 4 2 6 9 9 5 2 2 1 8 5 5 8 10 11 6 3 2 4 4 4 5 6 5 8 12 12 13 14 15 17 17 16 14 11 12
5 6 6 3 4 4 0 5 2 2 10 2 6 4 4 3 2 3 5 9 10 9 4 0 4 5 7 5 7 8 8 9 12 14 13 13 15 15 16 17 18 16 12 14
4 4 10 7 5 5 5 2 1 7 3 6 5 6 5 1 4 4 4 3 3 3 4 4 5 7 9 12 12 11 10 12 12 13 13 14 15 15 17 15 13 13 14 12
4 5 4 4 4 7 1 2 5 4 3 4 4 7 5 1 5 5 5 4 6 7 7 7 6 7 8 9 10 12 15 18 19 19 19 18 17 16 15 12 13 12 11 11
4 4 2 6 3 2 2 5 7 5 6 4 5 6 6 8 7 8 7 8 8 7 6 6 8 8 9 9 11 13 15 17 18 20 21 20 19 17 11 10 11 11 12 11
3 3 4 3 3 6 6 8 9 7 9 6 4 6 7 7 5 1 2 3 4 8 8 9 10 11 11 12 13 13 14 15 16 17 18 17 15 13 12 11 11 11 14 15
7 3 7 11 14 12 13 7 6 8 7 5 6 5 4 4 4 2 2 3 3 5 7 7 9 12 14 15 17 17 17 17 16 15 15 15 14 14 17 15 15 16 17 17
9 14 9 9 13 11 13 12 10 10 8 8 10 8 8 7 7 5 3 4 5 6 6 8 9 12 15 17 18 18 17 16 13 11 15 16 16 17 18 19 21 18 19 19
Wind_Direction
29 93 60 41 78 107 151 233 303 307 303 283 317 298 310 347 23 7 1 349 339 348 11 3 347 271 241 230 223 211 206 199 198 204 200 212 218 224 235 241 245 237 237 240
123 71 15 81 109 129 103 24 6 291 309 294 316 299 289 24 37 24 10 8 1 3 28 32 22 19 8 227 208 210 204 199 204 206 201 207 208 231 230 235 233 242 241 252
76 50 310 114 83 96 94 34 344 308 316 269 301 285 215 120 61 31 29 19 14 16 29 30 35 37 44 45 193 207 203 194 202 205 203 197 201 230 229 236 240 238 232 237
66 3 97 92 69 327 115 356 324 317 324 314 4 289 255 333 334 23 18 16 14 14 39 39 36 39 37 33 49 122 191 191 198 201 197 200 209 213 216 211 222 227 232 241
82 63 80 79 69 35 2 320 308 296 287 297 261 262 351 333 337 6 3 10 3 11 48 40 46 49 46 49 55 66 84 100 150 195 209 207 207 192 154 130 122 101 99 218
95 52 42 9 156 46 328 301 293 243 266 256 77 353 283 18 339 340 356 3 6 357 48 52 54 57 55 55 60 61 66 63 78 91 83 85 83 89 94 89 87 79 69 59
110 46 81 8 308 137 8 348 324 234 203 291 46 308 0 357 357 350 349 4 5 4 6 66 62 56 50 61 67 71 71 68 70 72 65 68 69 69 68 67 66 67 69 62
219 202 16 352 37 331 27 352 318 283 265 304 325 270 29 357 342 3 21 42 37 15 2 47 68 57 54 54 60 65 75 76 74 73 70 66 65 65 67 68 70 67 68 59
203 171 319 38 46 336 53 103 34 276 250 265 256 259 184 199 337 358 11 34 53 27 15 8 59 64 62 60 59 53 59 68 72 67 67 66 62 60 57 54 55 54 56 50
136 276 49 52 223 56 9 95 201 99 279 271 241 269 276 270 291 295 296 82 84 69 15 13 13 56 56 40 59 65 56 45 52 59 53 50 45 38 38 37 36 32 27 31
91 266 125 227 42 108 139 143 75 92 256 268 295 257 265 308 273 243 191 146 122 93 76 10 17 28 35 19 5 47 46 51 53 45 39 34 35 31 25 23 22 25 15 13
60 151 248 61 107 39 320 158 180 229 211 239 282 274 304 257 287 220 194 170 158 138 141 319 334 9 5 1 348 37 36 38 42 42 45 19 22 8 9 13 12 17 10 5
175 196 279 185 167 191 238 188 160 128 166 229 239 255 152 260 253 213 210 198 194 198 190 215 235 22 310 355 327 25 26 359 26 26 28 11 27 354 6 353 347 19 13 359
165 191 238 259 292 186 241 220 210 217 230 261 239 282 290 292 287 266 225 218 212 222 240 225 195 190 214 252 292 260 357 336 2 13 10 7 5 354 359 319 333 2 5 3
219 247 220 249 251 241 261 258 242 231 253 258 280 284 288 291 299 295 256 233 230 226 234 216 201 208 212 247 241 288 333 10 4 4 11 10 6 3 4 2 350 343 338 346
168 244 231 268 263 258 260 259 256 261 263 261 266 276 291 305 308 310 267 235 217 204 232 221 200 200 225 192 209 202 5 358 6 354 347 344 342 337 341 340 346 344 338 335
213 204 215 269 304 294 267 255 243 249 252 251 250 284 323 314 327 334 305 214 190 182 182 245 203 217 201 208 284 323 307 331 342 338 340 336 327 320 326 330 322 322 330 333
185 196 201 273 263 247 44 245 276 242 254 221 263 281 306 309 334 355 331 185 150 148 97 120 150 172 208 230 269 278 285 291 315 322 324 323 319 319 320 316 314 321 321 320
216 191 211 243 225 310 269 155 159 278 275 230 249 272 277 152 134 53 46 117 123 117 126 136 122 294 297 286 281 280 276 286 317 317 315 321 314 314 315 314 314 311 304 308
163 217 212 188 241 253 122 161 20 184 280 276 234 224 186 219 281 106 123 126 128 128 138 258 292 304 304 332 334 318 313 310 303 312 310 312 315 313 312 309 306 303 299 300
136 173 214 222 251 275 286 240 194 247 337 337 261 216 192 272 359 119 154 100 72 54 40 360 329 319 326 330 334 321 304 293 307 311 310 307 313 312 310 306 302 298 296 295
207 186 202 202 233 260 122 189 240 2 319 288 254 222 227 71 92 95 71 39 20 15 11 7 344 334 334 339 332 322 316 319 318 315 311 308 308 309 308 301 299 300 300 304
240 236 270 219 242 16 300 302 306 296 287 289 241 195 174 138 92 62 40 22 7 353 345 346 334 320 320 329 332 322 317 319 316 313 313 313 316 315 318 319 313 311 308 304
237 202 246 279 217 239 257 292 275 266 268 276 250 185 167 133 120 17 221 247 302 319 329 331 325 321 320 322 320 311 313 315 311 308 309 313 316 322 320 313 302 303 303 302
273 270 264 271 277 281 274 270 308 300 273 230 165 157 145 113 75 36 252 269 290 307 312 317 325 318 319 322 316 312 312 310 306 310 315 320 322 321 311 303 297 297 293 289
239 250 249 261 278 279 286 288 307 297 271 198 156 132 124 145 135 206 258 296 309 310 324 326 319 318 322 320 317 314 310 302 303 321 315 313 315 313 308 307 304 300 301 304